Location: Aufkirchen
(47.9603°N, 11.3653°E)
Time: 17:12:31
(UTC+01:00)

Transit 2A - Pass Details

Date: 05 December 2020
Orbit: 599 x 960 km, 66.7° (Epoch: 26 January)

Event Time Altitude Azimuth Distance (km) Brightness Sun altitude
Rises 23:25:45 0° 327° (NNW) 3,334 - -63.3°
Reaches altitude 10° 23:28:30 10° 336° (NNW) 2,336 - -63.5°
Maximum altitude 23:33:21 35° 42° (NE) 1,169 - -63.8°
Drops below altitude 10° 23:37:45 10° 108° (ESE) 2,114 - -64.0°
Sets 23:40:07 0° 118° (ESE) 2,975 - -64.1°
